GFSSW_sfc_dewp_273.txt.gz
Dewpoint
55 55 55 56 56 56 55 55 55 55 56 57 57 58 58 59 58 45 24 38 39 57 55 26 29 24 22 15 15 15 13 14 13 15 37 40 39 43 45 45 44 43 41 45 54
55 55 55 55 56 56 55 55 55 55 56 56 57 57 58 58 42 28 48 62 63 64 29 24 22 20 14 12 15 12 14 16 20 21 25 34 39 42 46 45 44 45 49 51 55
54 54 54 54 54 55 55 55 55 55 56 55 56 57 58 55 39 21 61 62 60 57 28 20 16 13 10 11 14 12 14 19 20 23 24 29 34 41 43 41 43 44 50 52 53
54 54 54 54 53 54 55 54 54 54 55 55 56 57 58 46 24 38 63 62 62 37 31 25 23 13 11 9 10 10 12 17 19 22 23 29 34 40 42 40 41 41 51 53 51
54 54 53 53 53 54 54 54 54 54 54 55 55 57 51 34 22 45 67 58 37 37 28 22 16 15 12 7 6 10 9 9 17 15 21 26 34 38 42 41 37 42 51 53 51
53 53 53 52 53 53 54 53 54 54 55 56 56 57 41 25 23 34 44 32 28 27 24 18 15 16 17 12 9 11 4 8 13 15 20 21 26 38 40 40 39 43 46 52 51
53 53 52 52 53 53 53 53 53 54 57 57 56 50 36 25 22 33 39 26 27 25 23 16 22 24 20 17 15 14 14 11 12 14 17 20 23 29 32 38 38 41 46 50 53
53 52 52 52 52 53 53 53 53 55 56 56 57 44 32 27 26 25 34 26 27 27 18 24 27 24 23 20 19 13 13 9 10 13 14 19 17 23 28 34 34 37 43 48 53
52 51 51 51 52 52 52 52 53 58 57 57 49 42 27 39 25 22 32 26 23 24 28 28 27 23 20 19 14 12 8 11 13 16 17 18 14 17 26 33 33 35 38 44 50
50 50 51 51 52 51 51 52 55 55 53 45 37 33 25 20 20 20 29 30 21 24 28 27 24 21 18 11 8 10 8 9 15 17 20 20 17 23 28 29 32 33 35 39 48
49 50 51 51 51 50 47 41 43 44 42 31 23 15 17 24 29 22 29 30 23 25 24 26 21 18 16 15 12 14 13 9 14 17 20 21 22 22 23 25 31 34 35 38 43
49 49 50 51 50 50 46 33 27 26 28 30 30 22 16 25 26 21 30 29 24 22 24 23 21 19 15 17 16 17 16 15 15 17 21 19 17 19 20 21 24 28 34 49 50
50 50 51 51 49 45 29 29 22 29 32 24 24 26 19 20 22 23 28 27 25 22 21 21 21 18 17 19 17 14 12 12 13 15 20 19 16 20 23 27 32 45 50 53 55
50 50 50 49 44 31 28 32 22 37 28 24 23 25 24 17 17 20 25 26 23 21 20 21 21 20 19 20 17 16 13 11 13 14 16 21 12 20 26 33 41 46 49 51 52
49 50 50 48 40 28 24 21 24 41 20 23 23 26 25 21 10 17 24 26 23 21 20 20 20 21 21 17 17 18 20 18 16 18 18 18 17 18 28 31 39 47 49 50 53
49 49 49 38 35 30 25 24 34 29 21 23 22 22 24 24 13 14 21 25 24 21 20 19 19 19 20 18 19 20 24 22 21 19 17 19 17 16 22 27 41 47 48 48 49
49 49 47 39 28 24 26 26 26 20 17 20 21 20 22 23 16 17 21 23 22 22 23 21 19 20 19 17 22 23 25 21 19 15 15 21 18 21 31 30 39 46 47 48 48
48 47 45 37 32 31 30 23 25 18 19 26 23 19 21 20 21 21 21 19 23 21 18 20 17 18 20 21 23 23 24 23 24 18 13 23 21 21 35 41 46 46 48 48 47
46 36 33 33 32 32 26 18 19 22 18 18 21 22 20 19 19 19 23 18 19 22 23 19 18 15 18 21 21 24 23 23 26 25 20 20 29 35 38 42 45 45 48 49 49
39 33 31 34 37 32 23 20 16 18 21 22 23 20 21 21 19 19 22 21 20 21 25 23 23 17 16 18 20 22 24 24 24 27 24 16 20 23 35 37 42 44 46 49 50
41 29 36 36 41 28 18 17 16 14 22 23 23 18 20 23 22 18 19 21 22 19 23 23 28 22 19 19 18 19 21 27 29 26 25 24 24 34 35 36 40 41 45 48 48
34 25 37 38 33 26 20 19 22 14 21 24 23 25 22 24 27 23 20 22 22 22 23 25 31 27 21 20 18 21 23 28 26 28 27 28 24 30 32 35 39 39 44 46 47
31 28 35 38 27 26 27 19 16 15 18 20 22 19 21 24 28 28 24 21 22 23 26 28 30 28 27 23 24 24 25 26 31 34 32 31 31 36 34 36 38 39 44 47 48
31 23 26 34 32 32 32 27 20 13 20 21 22 21 16 20 27 30 27 24 22 21 49 42 33 33 26 26 26 28 23 24 30 30 30 26 26 36 38 37 39 41 46 47 49
30 26 27 29 30 29 31 34 24 19 21 23 23 18 18 21 24 25 29 29 28 38 32 38 34 32 29 26 23 24 25 23 26 28 29 28 32 39 40 40 41 44 45 48 49
30 27 30 30 33 35 31 30 29 23 22 22 23 20 21 24 23 28 27 32 34 32 33 37 36 33 27 25 22 22 24 26 26 25 27 28 30 35 43 41 39 40 46 48 49
34 35 33 30 27 26 31 31 31 30 24 21 26 26 25 22 20 27 36 41 36 36 39 38 35 34 28 26 24 24 23 25 26 26 26 27 33 39 40 39 39 42 44 49 49

GFSSW_sfc_dewp_276.txt.gz
Dewpoint
55 55 55 56 56 56 55 55 55 55 56 56 57 58 58 59 58 43 25 36 40 61 53 27 23 25 25 20 18 13 14 12 14 30 41 42 38 46 49 47 40 39 44 48 50
55 55 55 55 55 55 55 55 55 55 55 56 57 57 58 59 42 28 42 62 62 62 21 19 20 22 20 17 13 12 15 14 21 28 41 42 43 55 39 42 41 41 46 49 50
54 54 54 54 54 55 55 55 55 55 55 56 56 57 57 56 37 26 65 62 64 55 19 17 20 16 15 13 10 14 15 15 19 23 22 36 33 49 52 50 56 55 47 49 50
54 54 54 53 53 54 54 54 54 54 55 55 56 56 57 47 30 36 63 64 64 28 23 26 17 15 11 9 8 10 13 15 15 21 20 19 25 41 48 51 59 59 53 49 49
53 53 53 52 52 54 54 54 53 54 54 55 56 56 52 37 27 44 65 59 28 24 26 26 21 19 12 7 7 7 8 9 12 17 16 18 22 30 49 47 50 53 53 47 48
53 52 52 52 53 53 53 53 54 54 54 56 57 56 40 28 25 39 36 25 21 23 27 25 17 13 12 10 9 6 5 6 8 7 15 14 17 21 48 55 52 52 51 47 46
53 52 52 52 53 53 53 53 53 54 55 58 58 50 36 28 21 25 37 26 23 26 23 21 16 14 18 18 17 10 7 12 2 7 11 14 19 18 37 49 49 39 42 48 48
52 52 52 52 53 53 53 53 53 54 57 57 57 45 33 28 28 22 34 28 25 22 22 21 16 22 23 19 17 13 12 10 8 8 9 13 14 17 25 33 42 37 40 44 50
52 51 51 52 52 53 52 52 52 55 59 57 50 44 28 39 23 21 29 26 23 25 25 19 24 24 21 19 17 17 8 8 7 9 10 13 14 14 19 26 33 32 36 43 47
51 51 51 52 52 52 51 52 54 55 51 46 39 35 32 21 22 19 24 28 23 22 22 26 25 23 19 15 10 10 9 6 10 12 15 14 19 16 21 26 32 34 31 38 45
50 50 50 51 52 51 47 41 43 45 43 32 27 20 15 19 19 17 18 28 25 20 21 25 19 17 18 18 15 9 11 11 9 16 17 17 21 18 21 27 26 29 33 45 54
49 50 50 51 51 50 47 39 26 25 25 28 37 31 20 17 25 23 18 26 27 18 21 22 20 19 17 15 13 12 12 15 15 14 19 19 19 19 21 21 24 24 44 52 57
50 50 50 50 49 47 28 30 25 26 28 23 21 27 26 13 21 22 19 24 25 19 19 20 20 19 18 17 16 18 17 16 12 13 18 19 19 21 16 20 22 30 45 51 60
50 50 50 50 44 35 31 26 21 34 29 22 20 19 23 15 17 18 18 24 24 21 19 19 19 19 18 16 18 19 12 10 10 11 10 18 15 24 20 23 25 39 47 50 52
50 50 49 48 41 32 28 25 21 38 25 21 21 23 21 19 10 13 19 23 23 21 21 18 18 19 20 18 19 17 15 17 14 13 16 13 13 19 21 26 35 48 49 50 53
49 49 48 39 39 36 28 24 29 28 23 23 22 22 20 21 17 11 15 21 23 21 21 18 17 19 19 20 18 16 18 21 22 18 17 17 15 14 24 29 43 46 46 48 50
49 49 45 39 32 30 28 26 22 20 20 21 20 19 20 21 21 14 14 20 19 21 22 20 16 16 17 18 19 18 23 22 19 17 14 19 16 21 30 42 46 46 46 47 49
48 46 44 37 36 35 31 23 23 18 20 23 20 19 19 20 21 19 14 15 20 20 18 18 16 15 19 19 18 18 23 23 23 18 16 21 20 26 32 43 46 46 46 47 48
47 37 34 37 38 35 29 21 16 18 18 21 19 20 20 19 19 20 17 16 17 21 24 17 17 18 17 19 18 21 24 23 29 26 21 23 31 34 38 40 43 45 46 46 48
38 36 33 33 36 33 26 24 18 16 15 20 20 21 21 19 19 20 19 21 21 20 25 25 26 19 17 16 18 21 23 25 26 27 25 22 28 27 38 39 41 44 46 48 50
40 34 34 34 38 30 25 22 20 18 18 18 22 24 22 21 20 19 19 20 24 20 22 22 32 21 19 17 18 18 18 25 32 28 28 25 26 41 39 40 41 43 47 48 48
36 28 37 37 34 31 26 25 27 19 19 16 21 22 23 22 22 22 22 20 21 23 20 24 35 25 23 18 17 18 22 25 27 32 31 32 32 33 41 37 43 39 47 48 47
32 28 34 38 28 28 30 26 24 21 20 19 17 23 24 22 28 26 27 25 18 22 28 32 33 27 26 26 22 20 19 25 35 42 37 33 31 39 37 40 40 39 46 47 48
34 24 27 33 32 31 30 30 29 25 21 19 18 18 21 21 23 23 25 27 21 21 48 46 40 35 30 27 24 26 18 20 33 32 31 30 30 36 41 41 44 42 48 47 48
33 27 27 24 27 31 33 30 27 30 28 21 21 18 21 25 21 17 22 26 26 39 30 46 41 33 26 27 26 24 23 21 23 27 30 30 30 38 46 49 51 55 48 48 48
34 30 31 31 31 29 33 33 31 25 30 26 23 19 23 29 26 21 20 29 33 31 31 44 38 36 27 26 25 25 24 26 24 21 25 28 33 41 48 46 48 48 45 48 49
35 35 33 33 28 24 24 28 30 33 29 29 28 23 23 23 21 22 26 35 38 41 42 43 38 38 31 27 26 25 24 24 27 26 26 28 42 45 44 46 43 41 43 50 51

GFSSW_sfc_dewp_279.txt.gz
Dewpoint
55 55 55 56 56 56 55 55 55 55 56 56 57 58 59 59 58 53 32 32 42 57 59 19 24 23 26 27 25 20 15 12 13 33 41 46 43 53 55 53 53 46 50 54 55
55 55 55 54 55 55 55 54 54 55 56 56 56 57 58 59 49 35 45 58 61 65 23 21 16 23 20 22 20 16 13 13 15 39 37 41 44 52 50 55 54 50 50 51 52
54 54 54 53 53 54 55 54 54 55 55 55 56 57 58 57 44 32 64 57 62 60 24 20 14 16 18 19 16 15 11 12 16 24 39 39 45 52 47 48 54 54 53 51 49
53 53 53 52 53 53 54 54 53 54 54 55 56 57 57 52 31 36 66 65 63 38 22 17 20 21 15 12 12 10 9 10 15 17 24 19 43 45 47 51 52 52 54 55 53
53 52 52 51 52 53 54 54 53 53 54 54 56 57 54 42 32 42 64 64 44 28 19 20 27 23 17 17 10 8 8 9 8 9 17 19 34 47 50 51 51 54 51 53 55
52 52 51 51 53 53 53 54 53 54 54 55 57 57 46 30 30 50 39 38 24 21 20 23 25 22 18 13 11 10 11 8 6 6 10 16 42 47 49 52 52 52 51 53 55
53 53 52 52 53 53 53 53 53 53 54 56 59 52 39 32 30 42 31 24 23 19 22 24 26 21 15 18 17 18 14 9 11 7 7 12 14 29 48 50 51 54 55 54 54
52 52 51 52 52 53 53 53 53 53 55 58 57 48 40 30 31 30 33 27 23 22 24 26 23 19 21 24 21 17 15 14 11 13 4 9 10 16 46 46 46 46 48 50 53
52 51 51 51 52 52 52 52 53 54 56 58 53 48 37 38 29 28 28 32 24 24 24 21 23 19 23 21 19 19 15 13 12 11 8 9 10 15 40 46 46 46 45 47 53
51 51 51 51 51 51 51 52 52 54 55 51 43 38 38 31 25 24 21 28 24 23 24 23 26 25 24 20 16 15 15 13 9 9 10 11 13 16 21 26 42 39 50 58 62
50 50 50 50 51 50 49 42 43 45 44 37 32 32 23 32 29 22 21 25 28 23 21 23 24 23 23 21 18 16 15 11 14 15 14 14 15 21 20 24 29 48 51 60 61
49 51 51 50 50 49 49 41 26 23 23 26 31 36 35 34 24 21 18 21 28 21 21 21 22 22 21 20 19 17 15 14 19 20 19 19 19 24 23 24 30 54 54 56 60
50 50 50 50 49 48 37 31 24 25 29 27 24 22 32 34 26 27 22 18 26 26 18 19 22 23 20 19 18 16 21 19 18 15 14 19 22 21 21 23 49 55 57 56 56
49 49 50 49 44 39 35 28 23 30 32 28 24 21 22 32 26 19 24 20 23 24 21 19 21 20 20 19 18 17 21 19 15 14 12 20 16 21 22 22 42 50 57 55 54
49 49 49 48 42 39 36 34 24 32 29 28 21 20 19 26 20 15 21 20 21 23 23 19 19 20 19 20 18 19 23 20 22 22 15 15 15 17 25 21 48 50 56 57 59
49 49 48 41 41 41 38 30 31 29 27 28 23 19 18 23 23 19 17 19 22 23 23 22 22 19 19 21 20 23 22 20 24 23 19 17 18 14 19 37 46 47 53 53 53
48 48 46 41 35 32 35 33 25 24 23 22 24 21 21 21 21 20 16 14 19 20 21 22 21 19 18 20 21 20 19 23 23 20 20 20 19 16 31 45 45 46 49 50 51
48 47 45 40 40 38 39 30 24 19 19 23 22 21 21 21 21 20 18 12 20 22 22 20 20 20 18 19 18 21 21 26 20 22 19 24 24 24 46 46 46 46 48 49 50
47 39 37 40 40 39 36 26 23 21 17 20 17 21 22 21 20 21 21 17 15 20 19 22 20 21 17 19 18 18 21 23 25 25 24 25 35 40 45 45 45 46 47 48 49
40 38 38 37 41 41 33 28 24 22 20 22 19 21 22 21 21 21 22 24 21 20 21 20 21 24 21 16 20 19 25 22 27 23 23 24 30 36 42 44 45 45 46 48 49
41 39 39 38 42 36 29 27 24 22 23 24 21 19 18 21 24 22 23 23 26 20 22 20 24 20 22 23 17 19 19 24 29 28 25 25 29 35 40 44 44 45 48 48 49
39 33 39 41 36 36 30 29 31 25 27 26 25 22 20 21 23 23 24 27 29 23 21 25 24 25 20 24 22 21 20 24 27 26 33 34 34 40 41 41 45 45 48 48 50
36 34 37 43 32 32 33 30 29 28 27 26 25 23 22 21 26 28 24 26 23 27 25 26 27 23 25 26 27 19 22 26 29 35 31 33 34 38 40 39 44 45 48 50 51
36 31 34 40 37 34 31 31 29 29 29 30 26 24 23 21 26 25 21 23 22 22 48 37 35 23 23 24 30 26 23 21 28 29 27 30 30 36 46 47 51 53 55 56 57
37 32 34 30 33 34 34 32 31 31 30 29 31 28 22 21 21 22 22 21 24 33 36 35 32 36 28 29 26 28 26 21 21 31 27 27 30 42 47 49 54 53 54 56 57
35 35 35 32 35 33 33 31 29 31 32 32 29 32 36 25 22 25 28 23 26 36 34 40 30 36 32 27 22 21 25 27 24 28 28 30 31 44 49 49 52 52 52 54 53
39 38 37 35 32 29 28 27 24 26 30 31 33 35 37 38 37 31 27 28 29 30 28 37 37 35 29 29 26 24 25 27 30 30 26 27 41 46 47 47 48 48 50 52 50

GFSSW_sfc_dewp_285.txt.gz
Dewpoint
54 54 54 54 54 54 54 54 55 55 55 55 56 56 57 58 58 53 31 32 37 61 51 22 21 21 25 27 28 20 16 15 14 17 41 51 50 52 54 53 54 55 55 54 57
54 54 54 53 53 53 54 54 54 54 55 55 55 56 57 58 52 42 46 58 59 61 27 22 22 21 20 22 23 19 15 14 15 23 42 49 50 51 52 51 52 53 54 56 63
53 53 53 53 53 53 53 53 54 54 54 54 55 56 57 57 34 14 60 60 61 59 27 23 20 17 14 19 19 17 16 16 16 15 42 47 49 53 51 48 51 51 53 55 64
53 53 52 52 52 52 53 53 53 54 54 54 55 56 58 52 3 27 67 67 64 48 23 18 17 14 14 16 18 16 15 15 13 25 41 46 49 49 49 45 51 53 53 54 57
52 52 52 52 52 52 53 53 53 53 54 54 55 57 53 35 28 25 64 65 51 29 24 19 17 20 26 19 18 13 15 14 11 11 34 46 48 49 48 49 50 54 53 53 53
52 51 51 51 51 52 53 53 53 53 53 54 55 58 41 17 11 39 49 47 38 27 23 19 16 24 25 20 16 17 14 15 18 17 24 46 47 46 45 47 49 54 53 52 53
52 51 50 50 51 52 53 53 53 53 53 54 56 53 45 19 32 33 31 26 29 27 21 21 20 20 26 22 21 18 19 18 17 12 40 45 45 45 45 50 49 53 52 52 56
52 51 51 51 52 52 53 52 53 53 54 55 58 52 26 29 37 34 31 29 26 24 22 20 23 24 24 23 20 19 18 17 16 18 33 18 8 44 45 48 49 49 50 51 56
51 51 51 51 52 52 52 52 53 55 56 59 50 46 23 37 35 36 29 23 31 24 25 20 24 23 23 20 18 19 19 18 16 17 14 12 10 13 45 46 47 48 50 50 57
50 51 51 51 51 51 51 52 52 56 56 53 48 35 28 22 31 29 30 26 30 27 25 23 23 23 23 20 14 18 17 19 16 17 16 16 14 15 39 46 47 48 49 54 57
49 50 50 50 50 50 50 39 28 28 37 29 28 28 26 32 39 29 28 28 30 26 21 24 21 19 20 22 22 23 22 20 20 20 18 16 14 13 44 46 46 47 47 54 57
49 50 50 50 49 51 44 33 31 30 25 24 25 27 29 33 32 35 28 22 27 23 25 22 19 21 23 26 25 25 21 19 20 20 18 13 17 29 44 45 45 46 51 53 57
50 50 50 49 49 42 39 34 36 34 23 26 25 26 25 31 30 33 30 21 23 24 20 20 19 22 23 23 24 22 20 19 18 19 18 15 15 46 51 54 51 58 57 57 57
50 50 49 49 38 40 33 37 34 34 24 26 29 25 23 31 31 35 28 20 23 21 22 18 19 19 21 23 22 20 21 20 20 20 14 17 15 25 50 52 54 56 58 56 56
50 49 49 48 41 33 31 34 35 36 13 26 27 25 26 24 24 31 30 23 16 22 25 24 22 20 20 19 23 21 24 21 22 19 18 18 14 14 48 50 52 53 54 57 57
50 49 48 42 39 37 36 35 32 18 5 25 21 20 23 25 28 24 24 24 23 20 24 24 26 22 21 22 22 22 23 22 25 21 16 17 16 17 38 48 51 54 53 56 61
49 48 46 41 29 34 37 29 15 16 15 25 20 18 17 20 24 26 18 16 17 16 17 18 18 23 25 22 23 21 20 18 18 17 15 19 19 19 28 37 51 53 52 58 60
48 47 43 43 42 39 33 19 10 11 23 27 23 20 21 21 23 23 23 15 18 19 17 15 15 17 22 22 20 19 20 21 14 16 15 23 21 24 47 46 53 54 54 58 58
46 40 38 37 41 37 27 17 12 17 25 25 21 19 20 21 19 23 23 21 19 21 17 21 20 23 22 22 20 22 20 21 20 24 21 21 28 45 51 55 56 56 55 55 56
41 38 38 38 40 35 24 24 21 28 28 28 21 23 20 21 18 18 23 27 25 21 20 20 18 19 19 22 22 19 22 19 22 14 14 19 26 37 46 50 52 53 54 53 54
37 33 32 40 39 32 24 25 26 29 31 30 27 24 25 22 21 18 22 25 29 23 22 20 20 16 19 19 16 17 19 24 22 24 19 17 20 29 44 50 51 53 53 52 52
36 16 36 39 32 32 29 29 33 29 34 32 30 26 24 25 23 21 22 26 27 25 24 27 21 18 15 16 21 19 19 23 22 19 28 25 22 29 45 48 52 51 51 51 52
32 34 38 37 29 31 33 33 34 33 33 32 30 32 32 29 25 25 26 28 23 23 25 24 23 22 22 19 23 21 21 21 25 26 27 27 27 37 45 46 48 49 49 50 52
34 26 31 35 35 31 30 31 31 33 31 30 29 32 32 30 27 25 24 26 34 25 45 40 27 25 25 22 22 21 25 22 22 23 21 25 22 33 44 45 47 48 50 51 52
34 31 34 29 32 31 31 32 30 30 32 32 33 34 34 31 32 31 38 37 37 39 37 29 26 29 28 29 30 23 25 24 23 23 22 21 27 24 43 45 47 49 51 52 52
33 33 34 34 33 31 33 30 30 31 26 25 33 34 34 32 34 37 39 37 36 36 34 33 24 28 23 26 29 26 22 22 25 26 26 25 25 34 45 47 48 49 51 51 52
37 36 35 33 31 28 27 27 28 29 29 32 35 34 33 37 39 39 40 39 37 35 34 32 26 26 21 30 30 28 26 23 25 27 25 25 28 50 50 47 48 49 51 51 51

GFSSW_sfc_dewp_288.txt.gz
Dewpoint
54 54 54 54 54 54 54 54 54 55 55 55 56 56 56 57 57 51 30 33 38 61 52 19 20 21 25 25 26 20 17 15 15 13 33 52 50 51 54 52 54 53 56 55 62
54 54 54 54 53 53 54 54 54 54 55 55 55 55 56 57 51 43 47 56 61 59 18 13 20 19 20 22 24 21 16 15 16 19 35 50 49 49 51 50 52 53 56 61 63
53 53 53 53 53 53 53 53 54 54 54 54 55 55 57 56 30 14 58 61 61 58 26 22 20 15 32 18 20 18 16 16 16 22 28 47 50 51 50 48 52 50 53 59 63
53 52 52 52 52 52 53 53 54 54 54 54 55 56 58 50 4 29 67 67 63 39 22 19 16 13 18 22 18 16 17 16 15 18 36 46 50 51 50 49 52 54 56 59 61
52 52 52 52 52 52 53 53 53 53 53 54 54 56 52 27 22 24 65 65 52 33 22 18 15 17 24 19 18 14 14 15 14 15 31 46 48 48 49 51 49 55 55 60 61
51 51 51 51 52 52 53 53 53 53 53 54 55 57 39 18 13 43 52 42 34 26 24 18 15 20 22 22 16 17 15 16 19 17 17 40 46 48 47 50 49 55 53 55 59
51 51 50 51 51 53 53 53 53 53 53 54 55 53 40 20 31 33 31 28 35 26 23 22 23 24 24 23 23 19 19 18 18 14 42 46 44 46 47 47 48 52 54 52 54
52 52 51 51 52 53 53 52 53 54 54 54 57 51 21 26 36 36 30 26 28 29 23 22 21 19 23 23 20 18 17 21 16 19 39 30 23 29 46 47 47 51 52 52 56
51 51 51 51 52 52 52 52 54 56 56 58 50 41 21 37 31 31 27 16 26 24 23 21 22 21 23 20 16 18 19 17 16 18 40 33 17 14 28 46 47 49 51 51 54
50 51 51 51 51 51 51 52 52 56 55 54 49 32 22 22 31 31 31 27 27 25 24 22 24 23 22 19 11 15 18 22 17 18 19 19 23 17 19 45 45 48 49 50 53
49 50 50 50 50 50 49 33 30 27 31 28 27 18 23 27 36 34 29 26 28 25 21 24 21 19 20 21 20 21 20 20 21 22 21 18 16 16 30 44 46 48 49 49 56
49 49 50 50 49 51 42 32 32 32 29 28 27 25 26 31 28 31 29 24 26 24 22 22 20 21 22 23 23 23 22 20 20 23 18 16 15 34 46 45 46 47 48 54 58
50 50 50 49 49 40 38 34 35 32 25 22 24 23 23 28 27 29 29 24 24 23 21 23 22 23 22 22 23 21 21 20 18 20 20 16 16 31 50 53 51 55 55 56 58
50 50 50 49 36 39 30 36 33 34 20 19 29 25 26 29 27 32 31 22 24 21 21 20 22 21 22 20 21 19 22 22 21 20 16 18 13 18 43 51 53 56 56 56 58
50 49 49 47 38 30 28 34 35 34 8 22 27 25 25 26 24 30 32 21 18 22 24 22 21 21 20 19 22 18 23 22 24 20 19 18 15 16 45 47 47 53 56 56 57
49 48 48 42 38 35 35 36 30 5 -2 19 21 20 23 25 26 24 26 24 22 19 26 23 26 22 20 21 22 25 23 21 23 21 16 16 16 16 43 46 47 53 55 57 57
48 47 46 42 26 36 36 27 11 6 11 23 22 19 18 20 22 25 21 20 19 16 17 17 17 21 23 22 24 21 20 18 18 16 16 21 18 19 25 34 42 48 54 58 58
48 47 43 43 42 37 30 17 5 10 18 28 23 21 20 20 21 23 17 16 19 17 16 15 13 15 20 18 18 20 20 20 13 16 15 24 20 22 44 52 52 53 56 58 57
46 38 38 37 41 36 25 14 13 15 25 26 22 19 19 22 20 22 23 20 16 19 16 18 16 22 22 22 21 22 19 21 20 23 20 19 22 38 51 54 54 55 57 57 58
38 37 36 39 40 32 22 24 18 26 28 29 21 24 20 21 18 18 20 27 27 21 20 19 17 20 22 20 21 21 23 19 21 17 16 17 23 25 38 49 54 54 55 56 57
36 25 26 40 38 29 22 22 25 27 31 30 27 25 24 22 22 18 19 26 27 21 19 20 19 17 18 18 16 16 19 23 22 24 18 17 20 29 36 41 53 54 55 55 56
33 11 36 38 31 32 27 28 33 31 35 32 31 27 26 25 26 22 22 25 28 26 22 25 21 18 15 17 19 17 17 22 22 19 26 24 23 27 32 42 53 54 55 54 55
31 32 36 36 29 31 32 32 32 32 32 32 31 30 31 28 25 27 26 33 36 29 20 22 21 20 21 20 21 22 21 22 25 26 25 23 24 35 45 48 52 54 54 54 53
32 17 29 34 34 31 30 30 30 33 32 31 29 32 32 31 29 27 29 35 38 37 49 38 24 21 23 21 25 26 27 24 23 23 22 28 24 26 44 47 50 52 54 53 53
33 27 33 27 31 31 31 32 29 29 31 31 33 33 32 30 30 32 38 37 35 40 34 31 26 29 28 29 28 29 29 28 23 23 22 22 25 25 35 46 48 51 52 52 52
33 33 34 33 33 31 33 30 30 30 26 24 31 33 33 29 32 34 38 37 34 36 32 33 27 26 24 23 24 28 29 29 26 25 25 27 26 29 33 47 47 48 50 51 52
36 35 34 31 31 28 28 29 31 27 31 34 35 33 33 34 39 38 39 38 34 32 32 33 30 25 20 27 24 16 25 29 27 26 24 23 26 44 47 46 47 48 50 50 52

GFSSW_sfc_dewp_291.txt.gz
Dewpoint
55 54 54 54 54 54 54 54 54 55 55 55 56 56 56 57 56 49 18 30 37 58 55 18 20 24 25 27 25 21 21 19 17 16 18 47 46 49 52 50 53 53 54 55 59
54 54 53 53 53 53 54 54 54 54 55 55 55 55 56 57 50 37 46 56 60 61 20 14 14 20 22 22 26 22 18 18 18 17 25 36 46 46 48 48 50 51 59 60 58
53 53 53 53 53 53 53 53 53 54 54 55 55 55 56 57 29 7 64 62 60 52 19 15 19 17 18 20 22 21 14 16 16 17 27 26 44 48 47 43 49 49 58 60 59
53 52 52 52 53 53 53 53 53 54 54 54 54 55 57 51 -3 21 66 67 63 34 23 21 19 15 16 16 19 18 19 18 16 16 22 29 44 47 48 44 53 52 56 60 60
52 52 52 52 52 53 53 53 53 53 54 54 54 55 52 25 17 23 64 64 46 26 22 20 17 17 13 16 18 18 17 17 17 15 19 36 36 35 46 47 50 54 55 59 60
52 52 51 51 52 53 53 53 54 53 53 54 54 56 38 19 18 50 52 39 30 24 23 19 14 21 22 23 20 19 17 18 19 20 17 23 32 44 40 47 50 52 55 56 59
52 52 51 52 53 53 53 53 53 54 54 54 55 53 35 18 31 34 32 31 28 25 23 23 21 23 26 24 23 21 20 19 19 19 32 38 35 39 40 48 48 50 53 55 59
52 52 51 52 52 53 53 53 54 56 55 55 56 52 19 25 33 30 30 25 32 26 23 23 23 21 23 24 21 19 20 13 17 19 42 35 14 23 35 44 44 48 49 53 55
51 51 51 51 52 52 52 53 55 57 56 57 51 38 17 38 30 29 28 16 25 27 26 21 22 21 24 21 19 21 10 18 17 25 41 34 22 23 22 39 43 47 49 51 53
51 51 51 51 52 51 52 52 55 57 56 55 48 36 26 21 28 31 31 27 28 25 23 22 24 24 24 21 10 12 16 19 19 18 21 21 24 24 25 25 29 43 47 50 53
49 50 51 51 51 50 48 38 31 29 31 29 29 25 21 28 30 32 28 25 29 28 24 24 19 18 21 25 21 21 21 21 22 23 22 22 23 23 32 40 34 42 46 50 53
49 49 50 50 49 50 41 32 32 32 29 29 28 27 26 26 21 27 27 20 22 24 25 24 19 23 23 23 22 23 22 20 21 22 23 23 22 23 44 43 44 44 47 49 55
50 50 51 49 49 40 38 33 32 34 28 23 23 22 21 23 21 23 27 27 22 24 24 23 21 23 22 23 22 21 21 21 19 22 24 21 20 23 37 51 50 48 48 50 54
50 50 50 49 39 36 31 34 33 34 20 17 27 24 28 27 21 26 28 24 24 21 24 23 23 23 22 21 21 20 21 21 22 22 17 22 14 25 30 40 50 50 52 50 55
50 49 49 47 38 27 30 34 35 36 6 15 24 25 28 26 26 27 33 23 23 21 24 20 22 22 24 22 23 20 23 23 23 23 23 20 17 19 39 26 29 50 54 55 57
49 49 48 42 38 33 35 36 34 14 10 16 20 20 20 24 25 28 28 26 24 23 26 21 25 22 23 22 23 22 23 25 26 24 20 21 18 16 20 31 38 51 55 56 57
48 48 46 42 26 37 35 30 17 11 14 21 21 18 20 20 20 22 26 23 20 21 21 19 19 21 24 20 23 23 25 21 18 18 16 24 20 21 28 31 42 43 49 57 57
48 47 42 43 42 39 31 24 15 10 14 25 21 20 20 21 19 23 21 21 22 21 19 15 11 17 19 19 17 24 27 21 18 16 14 24 20 21 34 42 52 52 52 56 57
46 37 37 38 39 40 28 19 18 17 22 25 20 19 20 21 20 23 22 19 20 23 20 20 17 20 19 21 19 23 23 26 26 26 20 19 25 29 37 45 50 53 56 57 58
39 36 32 41 41 34 27 26 20 21 26 26 17 23 21 21 20 20 23 27 23 22 25 24 20 19 20 22 22 24 26 24 26 22 19 18 23 20 30 31 39 52 55 57 59
36 23 36 41 40 32 24 24 24 25 30 25 25 23 23 23 23 19 19 27 32 22 24 24 26 18 19 18 16 20 19 27 28 27 20 20 19 35 35 37 39 40 52 56 58
32 15 39 39 31 33 27 28 32 28 32 28 29 25 24 23 22 22 21 28 36 31 22 28 30 22 19 20 22 21 21 28 19 23 28 26 23 32 34 33 37 42 52 55 58
29 30 38 40 28 30 33 31 30 30 30 29 30 29 30 28 24 27 26 34 35 36 35 31 29 24 25 23 25 21 22 26 31 33 27 23 22 31 39 43 44 48 52 56 57
32 16 31 37 36 33 32 31 30 31 30 31 30 31 30 29 32 29 32 35 35 36 45 42 33 28 22 22 28 29 28 28 31 27 25 25 24 28 32 36 37 49 53 56 57
34 27 34 29 32 34 33 32 29 27 30 31 34 32 31 30 30 33 35 32 31 39 35 39 33 31 28 27 28 27 26 25 28 30 29 28 28 29 35 38 39 45 54 56 56
32 33 35 34 34 32 34 32 30 29 28 25 32 31 30 30 30 32 34 34 31 34 32 37 32 32 27 24 22 22 21 24 25 28 29 30 32 33 38 38 40 45 51 54 55
37 37 35 32 32 30 31 31 31 30 34 31 33 31 30 33 38 38 38 38 36 32 30 32 32 30 23 25 24 19 19 20 21 20 27 28 33 34 36 42 41 45 50 51 54